This is the latest recevied weather packets stored in our database for station/object DG6HD-13. If no packets are shown the sender has not sent any weather packets the latest 1 day(s).
| Time | Temp. | Humidity | Pressure | Rain* | Wind** | Luminosity | Snow |
|---|---|---|---|---|---|---|---|
| 1777788621 | 13.89° C | 51% | 1012.7 hPa | - | - | - | - |
| 1777787720 | 13.33° C | 50% | 1012.6 hPa | - | - | - | - |
| 1777786819 | 12.78° C | 48% | 1012.5 hPa | - | - | - | - |
| 1777785918 | 12.22° C | 50% | 1012.5 hPa | - | - | - | - |
| 1777785018 | 12.22° C | 49% | 1012.5 hPa | - | - | - | - |
| 1777784117 | 12.22° C | 50% | 1012.6 hPa | - | - | - | - |
| 1777783216 | 12.22° C | 51% | 1012.5 hPa | - | - | - | - |
| 1777782315 | 12.22° C | 50% | 1012.7 hPa | - | - | - | - |
| 1777781414 | 12.22° C | 49% | 1012.8 hPa | - | - | - | - |
| 1777780514 | 12.22° C | 49% | 1012.9 hPa | - | - | - | - |
| 1777779613 | 12.78° C | 49% | 1013 hPa | - | - | - | - |
| 1777778712 | 12.78° C | 48% | 1012.8 hPa | - | - | - | - |
| 1777777811 | 12.78° C | 48% | 1013.1 hPa | - | - | - | - |
| 1777776910 | 13.33° C | 48% | 1013.2 hPa | - | - | - | - |
| 1777776009 | 13.33° C | 48% | 1013.2 hPa | - | - | - | - |
| 1777775108 | 13.33° C | 47% | 1013.4 hPa | - | - | - | - |
| 1777774207 | 13.33° C | 47% | 1013.6 hPa | - | - | - | - |
| 1777773307 | 13.89° C | 47% | 1013.5 hPa | - | - | - | - |
| 1777772406 | 13.89° C | 46% | 1013.3 hPa | - | - | - | - |
| 1777771505 | 13.89° C | 46% | 1013.4 hPa | - | - | - | - |
| 1777770604 | 14.44° C | 45% | 1013.5 hPa | - | - | - | - |
| 1777769703 | 14.44° C | 45% | 1013.6 hPa | - | - | - | - |
| 1777768803 | 14.44° C | 45% | 1013.6 hPa | - | - | - | - |
| 1777767902 | 15° C | 45% | 1013.7 hPa | - | - | - | - |
| 1777767001 | 15° C | 44% | 1013.6 hPa | - | - | - | - |
* Rain since midnight (hover to see other rain measurements)
** Current wind speed in m/s (hover to see current wind gust speed)